Year,Month,Day,Hour,Minute,Value (Times are PST for temperature in C)
2019,03,28,09,57,10.70
2019,03,28,09,58,10.70
2019,03,28,09,59,10.70
2019,03,28,10,00,10.80
2019,03,28,10,01,10.90
2019,03,28,10,02,11.00
2019,03,28,10,03,11.10
2019,03,28,10,04,11.20
2019,03,28,10,05,11.20
2019,03,28,10,06,11.30
2019,03,28,10,07,11.40
2019,03,28,10,08,11.40
2019,03,28,10,09,11.50
2019,03,28,10,10,11.50
2019,03,28,10,11,11.60
2019,03,28,10,12,11.60
2019,03,28,10,13,11.50
2019,03,28,10,14,11.50
2019,03,28,10,15,11.50
2019,03,28,10,16,11.50
2019,03,28,10,17,11.50
2019,03,28,10,18,11.40
2019,03,28,10,19,11.40
2019,03,28,10,20,11.40
2019,03,28,10,21,11.40
2019,03,28,10,22,11.50
2019,03,28,10,23,11.50
2019,03,28,10,24,11.50
2019,03,28,10,25,11.50
2019,03,28,10,26,11.50
2019,03,28,10,27,11.50
2019,03,28,10,28,11.50
2019,03,28,10,29,11.50
2019,03,28,10,30,11.50
2019,03,28,10,31,11.50
2019,03,28,10,32,11.50
2019,03,28,10,33,11.60
2019,03,28,10,34,11.60
2019,03,28,10,35,11.60
2019,03,28,10,36,11.60
2019,03,28,10,37,11.60
2019,03,28,10,38,11.60
2019,03,28,10,39,11.60
2019,03,28,10,40,11.60
2019,03,28,10,41,11.60
2019,03,28,10,42,11.60
2019,03,28,10,43,11.60
2019,03,28,10,44,11.60
2019,03,28,10,45,11.60
2019,03,28,10,46,11.60
2019,03,28,10,47,11.60
2019,03,28,10,48,11.60
2019,03,28,10,49,11.60
2019,03,28,10,50,11.70
2019,03,28,10,51,11.70
2019,03,28,10,52,11.70
2019,03,28,10,53,11.70
2019,03,28,10,54,11.70
2019,03,28,10,55,11.80
2019,03,28,10,56,11.80
2019,03,28,10,57,11.80
2019,03,28,10,58,11.80
2019,03,28,10,59,11.80
2019,03,28,11,00,11.90
2019,03,28,11,01,11.90
2019,03,28,11,02,11.90
2019,03,28,11,03,11.90
2019,03,28,11,04,11.90
2019,03,28,11,05,11.90
2019,03,28,11,06,11.90
2019,03,28,11,07,11.90
2019,03,28,11,08,11.90
2019,03,28,11,09,11.90
2019,03,28,11,10,11.90
2019,03,28,11,11,11.80
2019,03,28,11,12,11.80
2019,03,28,11,13,11.80
2019,03,28,11,14,11.70
2019,03,28,11,15,11.70
2019,03,28,11,16,11.70
2019,03,28,11,17,11.70
2019,03,28,11,18,11.70
2019,03,28,11,19,11.70
2019,03,28,11,20,11.70
2019,03,28,11,21,11.70
2019,03,28,11,22,11.70
2019,03,28,11,23,11.70
2019,03,28,11,24,11.70
2019,03,28,11,25,11.80
2019,03,28,11,26,11.80
2019,03,28,11,27,11.80
2019,03,28,11,28,11.80
2019,03,28,11,29,11.80
2019,03,28,11,30,11.90
2019,03,28,11,31,11.90
2019,03,28,11,32,11.90
2019,03,28,11,33,11.90
2019,03,28,11,34,11.90
2019,03,28,11,35,11.90
2019,03,28,11,36,11.90
2019,03,28,11,37,11.90
2019,03,28,11,38,11.90
2019,03,28,11,39,11.90
2019,03,28,11,40,11.90
2019,03,28,11,41,11.90
2019,03,28,11,42,12.00
2019,03,28,11,43,12.00
2019,03,28,11,44,12.00
2019,03,28,11,45,12.00
2019,03,28,11,46,12.00
2019,03,28,11,47,12.00
2019,03,28,11,48,12.00
2019,03,28,11,49,12.10
2019,03,28,11,50,12.10
2019,03,28,11,51,12.10
2019,03,28,11,52,12.10
2019,03,28,11,53,12.20
2019,03,28,11,54,12.20
2019,03,28,11,55,12.20
2019,03,28,11,56,12.10
2019,03,28,11,57,12.10
2019,03,28,11,58,12.10
2019,03,28,11,59,12.00
2019,03,28,12,00,12.00
2019,03,28,12,01,11.90
2019,03,28,12,02,11.90
2019,03,28,12,03,11.90
2019,03,28,12,04,11.80
2019,03,28,12,05,11.80
2019,03,28,12,06,11.80
2019,03,28,12,07,11.70
2019,03,28,12,08,11.70
2019,03,28,12,09,11.70
2019,03,28,12,10,11.60
2019,03,28,12,11,11.70
2019,03,28,12,12,11.70
2019,03,28,12,13,11.70
2019,03,28,12,14,11.70
2019,03,28,12,15,11.80
2019,03,28,12,16,11.80
2019,03,28,12,17,11.80
2019,03,28,12,18,11.90
2019,03,28,12,19,12.00
2019,03,28,12,20,12.00
2019,03,28,12,21,12.10
2019,03,28,12,22,12.20
2019,03,28,12,23,12.20
2019,03,28,12,24,12.30
2019,03,28,12,25,12.40
2019,03,28,12,26,12.40
2019,03,28,12,27,12.50
2019,03,28,12,28,12.50
2019,03,28,12,29,12.60
2019,03,28,12,30,12.60
2019,03,28,12,31,12.60
2019,03,28,12,32,12.60
2019,03,28,12,33,12.60
2019,03,28,12,34,12.60
2019,03,28,12,35,12.70
2019,03,28,12,36,12.70
2019,03,28,12,37,12.70
2019,03,28,12,38,12.70
2019,03,28,12,39,12.80
2019,03,28,12,40,12.80
2019,03,28,12,41,12.90
2019,03,28,12,42,12.90
2019,03,28,12,43,13.00
2019,03,28,12,44,13.00
2019,03,28,12,45,13.00
2019,03,28,12,46,13.10
2019,03,28,12,47,13.10
2019,03,28,12,48,13.10
2019,03,28,12,49,13.20
2019,03,28,12,50,13.20
2019,03,28,12,51,13.30
2019,03,28,12,52,13.30
2019,03,28,12,53,13.30
2019,03,28,12,54,13.30
2019,03,28,12,55,13.30
2019,03,28,12,56,13.30
2019,03,28,12,57,13.30
2019,03,28,12,58,13.30
2019,03,28,12,59,13.30
2019,03,28,13,00,13.30
2019,03,28,13,01,13.30
2019,03,28,13,02,13.20
2019,03,28,13,03,13.20
2019,03,28,13,04,13.20
2019,03,28,13,05,13.30
2019,03,28,13,06,13.30
2019,03,28,13,07,13.30
2019,03,28,13,08,13.30
2019,03,28,13,09,13.20
2019,03,28,13,10,13.20
2019,03,28,13,11,13.20
2019,03,28,13,12,13.20
2019,03,28,13,13,13.30
2019,03,28,13,14,13.30
2019,03,28,13,15,13.40
2019,03,28,13,16,13.50
2019,03,28,13,17,13.40
2019,03,28,13,18,13.40
2019,03,28,13,19,13.40
2019,03,28,13,20,13.40
2019,03,28,13,21,13.40
2019,03,28,13,22,13.40
2019,03,28,13,23,13.40
2019,03,28,13,24,13.30
2019,03,28,13,25,13.30
2019,03,28,13,26,13.20
2019,03,28,13,27,13.20
2019,03,28,13,28,13.10
2019,03,28,13,29,13.10
2019,03,28,13,30,13.10
2019,03,28,13,31,13.10
2019,03,28,13,32,13.10
2019,03,28,13,33,13.10
2019,03,28,13,34,13.10
2019,03,28,13,35,13.10
2019,03,28,13,36,13.10
2019,03,28,13,37,13.20
2019,03,28,13,38,13.30
2019,03,28,13,39,13.40
2019,03,28,13,40,13.60
2019,03,28,13,41,13.80
2019,03,28,13,42,13.90
2019,03,28,13,43,14.00
2019,03,28,13,44,14.00
2019,03,28,13,45,14.00
2019,03,28,13,46,13.90
2019,03,28,13,47,14.00
2019,03,28,13,48,14.00
2019,03,28,13,49,14.10
2019,03,28,13,50,14.10
2019,03,28,13,51,14.10
2019,03,28,13,52,14.10
2019,03,28,13,53,14.10
2019,03,28,13,54,14.10
2019,03,28,13,55,14.20
2019,03,28,13,56,14.30
2019,03,28,13,57,14.40
2019,03,28,13,58,14.40
2019,03,28,13,59,14.40
2019,03,28,14,00,14.50
2019,03,28,14,01,14.50
2019,03,28,14,02,14.50
2019,03,28,14,03,14.50
2019,03,28,14,04,14.50
2019,03,28,14,05,14.40
2019,03,28,14,06,14.30
2019,03,28,14,07,14.30
2019,03,28,14,08,14.30
2019,03,28,14,09,14.30
2019,03,28,14,10,14.40
2019,03,28,14,11,14.40
2019,03,28,14,12,14.40
2019,03,28,14,13,14.50
2019,03,28,14,14,14.50
2019,03,28,14,15,14.50
2019,03,28,14,16,14.60
2019,03,28,14,17,14.60
2019,03,28,14,18,14.70
2019,03,28,14,19,14.60
2019,03,28,14,20,14.50
2019,03,28,14,21,14.40
2019,03,28,14,22,14.40
2019,03,28,14,23,14.30
2019,03,28,14,24,14.30
2019,03,28,14,25,14.30
2019,03,28,14,26,14.30
2019,03,28,14,27,14.20
2019,03,28,14,28,14.20
2019,03,28,14,29,14.20
2019,03,28,14,30,14.20
2019,03,28,14,31,14.20
2019,03,28,14,32,14.10
2019,03,28,14,33,14.10
2019,03,28,14,34,14.00
2019,03,28,14,35,14.00
2019,03,28,14,36,13.90
2019,03,28,14,37,13.90
2019,03,28,14,38,14.00
2019,03,28,14,39,14.10
2019,03,28,14,40,14.10
2019,03,28,14,41,14.10
2019,03,28,14,42,14.10
2019,03,28,14,43,14.10
2019,03,28,14,44,14.10
2019,03,28,14,45,14.10
2019,03,28,14,46,14.10
2019,03,28,14,47,14.10
2019,03,28,14,48,14.20
2019,03,28,14,49,14.20
2019,03,28,14,50,14.30
2019,03,28,14,51,14.30
2019,03,28,14,52,14.30
2019,03,28,14,53,14.40
2019,03,28,14,54,14.40
2019,03,28,14,55,14.50
2019,03,28,14,56,14.60
2019,03,28,14,57,14.60
2019,03,28,14,58,14.70
2019,03,28,14,59,14.70
2019,03,28,15,00,14.70
2019,03,28,15,01,14.80
2019,03,28,15,02,14.90
2019,03,28,15,03,15.00
2019,03,28,15,04,15.00
2019,03,28,15,05,15.10
2019,03,28,15,06,15.20
2019,03,28,15,07,15.20
2019,03,28,15,08,15.20
2019,03,28,15,09,15.20
2019,03,28,15,10,15.20
2019,03,28,15,11,15.20
2019,03,28,15,12,15.20
2019,03,28,15,13,15.20
2019,03,28,15,14,15.10
2019,03,28,15,15,15.00
2019,03,28,15,16,14.90
2019,03,28,15,17,14.80
2019,03,28,15,18,14.80
2019,03,28,15,19,14.80
2019,03,28,15,20,14.70
2019,03,28,15,21,14.70
2019,03,28,15,22,14.70
2019,03,28,15,23,14.80
2019,03,28,15,24,14.80
2019,03,28,15,25,14.80
2019,03,28,15,26,14.70
2019,03,28,15,27,14.70
2019,03,28,15,28,14.70
2019,03,28,15,29,14.60
2019,03,28,15,30,14.60
2019,03,28,15,31,14.60
2019,03,28,15,32,14.70
2019,03,28,15,33,14.70
2019,03,28,15,34,14.60
2019,03,28,15,35,14.60
2019,03,28,15,36,14.60
2019,03,28,15,37,14.50
2019,03,28,15,38,14.50
2019,03,28,15,39,14.40
2019,03,28,15,40,14.40
2019,03,28,15,41,14.40
2019,03,28,15,42,14.40
2019,03,28,15,43,14.40
2019,03,28,15,44,14.50
2019,03,28,15,45,14.50
2019,03,28,15,46,14.50
2019,03,28,15,47,14.60
2019,03,28,15,48,14.60
2019,03,28,15,49,14.60
2019,03,28,15,50,14.70
2019,03,28,15,51,14.80
2019,03,28,15,52,14.90
2019,03,28,15,53,14.90
2019,03,28,15,54,15.00
2019,03,28,15,55,15.10
2019,03,28,15,56,15.10
2019,03,28,15,57,15.20
2019,03,28,15,58,15.20
2019,03,28,15,59,15.20
2019,03,28,16,00,15.20
2019,03,28,16,01,15.20
2019,03,28,16,02,15.10
2019,03,28,16,03,15.10
2019,03,28,16,04,15.10
2019,03,28,16,05,15.10
2019,03,28,16,06,15.10
2019,03,28,16,07,15.00
2019,03,28,16,08,14.90
2019,03,28,16,09,14.90
2019,03,28,16,10,14.80
2019,03,28,16,11,14.70
2019,03,28,16,12,14.50
2019,03,28,16,13,14.30
2019,03,28,16,14,14.00
2019,03,28,16,15,13.90
2019,03,28,16,16,13.80
2019,03,28,16,17,13.80
2019,03,28,16,18,13.80
2019,03,28,16,19,13.80
2019,03,28,16,20,13.80
2019,03,28,16,21,13.90
2019,03,28,16,22,13.90
2019,03,28,16,23,14.00
2019,03,28,16,24,14.00
2019,03,28,16,25,14.00
2019,03,28,16,26,14.10
2019,03,28,16,27,14.10
2019,03,28,16,28,14.10
2019,03,28,16,29,14.10
2019,03,28,16,30,14.00
2019,03,28,16,31,14.00
2019,03,28,16,32,13.90
2019,03,28,16,33,13.90
2019,03,28,16,34,13.90
2019,03,28,16,35,13.90
2019,03,28,16,36,14.00
2019,03,28,16,37,14.10
2019,03,28,16,38,14.10
2019,03,28,16,39,14.10
2019,03,28,16,40,14.00
2019,03,28,16,41,14.00
2019,03,28,16,42,14.00
2019,03,28,16,43,13.90
2019,03,28,16,44,13.90
2019,03,28,16,45,13.90
2019,03,28,16,46,13.90
2019,03,28,16,47,13.80
2019,03,28,16,48,13.80
2019,03,28,16,49,13.90
2019,03,28,16,50,13.90
2019,03,28,16,51,14.00
2019,03,28,16,52,14.00
2019,03,28,16,53,14.10
2019,03,28,16,54,14.20
2019,03,28,16,55,14.20
2019,03,28,16,56,14.20
2019,03,28,16,57,14.10
2019,03,28,16,58,14.10
2019,03,28,16,59,14.10
2019,03,28,17,00,14.10
2019,03,28,17,01,14.00
2019,03,28,17,02,14.00
2019,03,28,17,03,14.00
2019,03,28,17,04,14.10
2019,03,28,17,05,14.10
2019,03,28,17,06,14.10
2019,03,28,17,07,14.20
2019,03,28,17,08,14.10
2019,03,28,17,09,14.10
2019,03,28,17,10,14.10
2019,03,28,17,11,14.00
2019,03,28,17,12,14.00
2019,03,28,17,13,14.00
2019,03,28,17,14,14.00
2019,03,28,17,15,14.00
2019,03,28,17,16,14.00
2019,03,28,17,17,13.90
2019,03,28,17,18,13.90
2019,03,28,17,19,13.90
2019,03,28,17,20,14.00
2019,03,28,17,21,13.90
2019,03,28,17,22,14.00
2019,03,28,17,23,13.90
2019,03,28,17,24,13.90
2019,03,28,17,25,13.80
2019,03,28,17,26,13.80
2019,03,28,17,27,13.80
2019,03,28,17,28,13.80
2019,03,28,17,29,13.80
2019,03,28,17,30,13.80
2019,03,28,17,31,13.80
2019,03,28,17,32,13.80
2019,03,28,17,33,13.80
2019,03,28,17,34,13.80
2019,03,28,17,35,13.80
2019,03,28,17,36,13.80
2019,03,28,17,37,13.80
2019,03,28,17,38,13.80
2019,03,28,17,39,14.00
2019,03,28,17,40,14.10
2019,03,28,17,41,14.20
2019,03,28,17,42,14.20
2019,03,28,17,43,14.30
2019,03,28,17,44,14.30
2019,03,28,17,45,14.40
2019,03,28,17,46,14.30
2019,03,28,17,47,14.30
2019,03,28,17,48,14.30
2019,03,28,17,49,14.30
2019,03,28,17,50,14.40
2019,03,28,17,51,14.40
2019,03,28,17,52,14.30
2019,03,28,17,53,14.20
2019,03,28,17,54,14.10
2019,03,28,17,55,13.90
2019,03,28,17,56,13.80
2019,03,28,17,57,13.80
2019,03,28,17,58,13.80
2019,03,28,17,59,13.90
2019,03,28,18,00,14.00
2019,03,28,18,01,14.10
2019,03,28,18,02,14.20
2019,03,28,18,03,14.30
2019,03,28,18,04,14.40
2019,03,28,18,05,14.50
2019,03,28,18,06,14.60
2019,03,28,18,07,14.60
2019,03,28,18,08,14.50
2019,03,28,18,09,14.50
2019,03,28,18,10,14.40
2019,03,28,18,11,14.40
2019,03,28,18,12,14.40
2019,03,28,18,13,14.40
2019,03,28,18,14,14.40
2019,03,28,18,15,14.30
2019,03,28,18,16,14.20
2019,03,28,18,17,14.10
2019,03,28,18,18,14.00
2019,03,28,18,19,13.90
2019,03,28,18,20,13.80
2019,03,28,18,21,13.80
2019,03,28,18,22,13.90
2019,03,28,18,23,13.90
2019,03,28,18,24,14.00
2019,03,28,18,25,14.00
2019,03,28,18,26,14.10
2019,03,28,18,27,14.10
2019,03,28,18,28,14.10
2019,03,28,18,29,14.10
2019,03,28,18,30,14.10
2019,03,28,18,31,14.20
2019,03,28,18,32,14.20
2019,03,28,18,33,14.20
2019,03,28,18,34,14.30
2019,03,28,18,35,14.30
2019,03,28,18,36,14.30
2019,03,28,18,37,14.40
2019,03,28,18,38,14.40
2019,03,28,18,39,14.40
2019,03,28,18,40,14.40
2019,03,28,18,41,14.30
2019,03,28,18,42,14.30
2019,03,28,18,43,14.20
2019,03,28,18,44,14.20
2019,03,28,18,45,14.20
2019,03,28,18,46,14.20
2019,03,28,18,47,14.20
2019,03,28,18,48,14.20
2019,03,28,18,49,14.20
2019,03,28,18,50,14.20
2019,03,28,18,51,14.20
2019,03,28,18,52,14.20
2019,03,28,18,53,14.20
2019,03,28,18,54,14.20
2019,03,28,18,55,14.20
2019,03,28,18,56,14.20
2019,03,28,18,57,14.20
2019,03,28,18,58,14.20
2019,03,28,18,59,14.10
2019,03,28,19,00,14.10
2019,03,28,19,01,14.00
2019,03,28,19,02,14.00
2019,03,28,19,03,14.00
2019,03,28,19,04,14.00
2019,03,28,19,05,14.00
2019,03,28,19,06,14.10
2019,03,28,19,07,14.10
2019,03,28,19,08,14.10
2019,03,28,19,09,14.10
2019,03,28,19,10,14.10
2019,03,28,19,11,14.20
2019,03,28,19,12,14.20
2019,03,28,19,13,14.10
2019,03,28,19,14,14.10
2019,03,28,19,15,14.00
2019,03,28,19,16,14.10
2019,03,28,19,17,14.10
2019,03,28,19,18,14.10
2019,03,28,19,19,14.10
2019,03,28,19,20,14.10
2019,03,28,19,21,14.10
2019,03,28,19,22,14.10
2019,03,28,19,23,14.10
2019,03,28,19,24,14.10
2019,03,28,19,25,14.10
2019,03,28,19,26,14.10
2019,03,28,19,27,14.00
2019,03,28,19,28,14.00
2019,03,28,19,29,14.00
2019,03,28,19,30,14.00
2019,03,28,19,31,14.00
2019,03,28,19,32,13.90
2019,03,28,19,33,13.90
2019,03,28,19,34,13.80
2019,03,28,19,35,13.70
2019,03,28,19,36,13.60
2019,03,28,19,37,13.40
2019,03,28,19,38,13.30
2019,03,28,19,39,13.20
2019,03,28,19,40,13.10
2019,03,28,19,41,13.00
2019,03,28,19,42,12.90
2019,03,28,19,43,12.80
2019,03,28,19,44,12.80
2019,03,28,19,45,12.70
2019,03,28,19,46,12.70
2019,03,28,19,47,12.70
2019,03,28,19,48,12.60
2019,03,28,19,49,12.50
2019,03,28,19,50,12.40
2019,03,28,19,51,12.30
2019,03,28,19,52,12.30
2019,03,28,19,53,12.30
2019,03,28,19,54,12.30
2019,03,28,19,55,12.30
2019,03,28,19,56,12.30
2019,03,28,19,57,12.30
2019,03,28,19,58,12.30
2019,03,28,19,59,12.30
2019,03,28,20,00,12.30
2019,03,28,20,01,12.30
